Location: Newark
(45.5167°N, 11.1667°E)
Time: 11:38:41
(UTC+00:00)

Vanguard 2 - All Passes

Search period start: 06 December 2019 00:00
Search period end: 16 December 2019 00:00
Orbit: 553 x 2938 km, 32.9° (Epoch: 05 December)

Date Brightness Start Highest point End Pass type
(mag) Time Alt. Az. Time Alt. Az. Time Alt. Az.
06 Dec - 00:26:46 10° SSW 00:40:00 29° SE 00:53:31 10° E visible
06 Dec - 02:34:15 10° SW 02:50:39 47° SSE 03:05:03 10° E visible
06 Dec - 04:45:14 10° WSW 05:01:48 50° S 05:14:09 10° ESE visible
06 Dec - 06:58:14 10° W 07:11:35 34° SSW 07:21:00 10° SSE daylight
06 Dec - 09:16:04 10° WSW 09:19:03 11° SW 09:21:45 10° SW daylight
06 Dec - 22:41:25 10° SSE 22:48:15 14° SE 22:55:30 10° ESE visible
07 Dec - 00:43:18 10° SSW 00:57:28 35° SSE 01:12:00 10° E visible
07 Dec - 02:51:45 10° WSW 03:08:25 50° S 03:22:57 10° ESE visible
07 Dec - 05:03:10 10° W 05:19:32 48° SSW 05:31:44 10° SE visible
07 Dec - 07:16:37 10° W 07:28:56 29° SW 07:37:54 10° SSE daylight
07 Dec - 22:55:45 10° S 23:05:24 19° SE 23:16:00 10° E visible
08 Dec - 01:00:12 10° SW 01:15:01 40° SSE 01:30:14 10° E visible
08 Dec - 03:09:24 10° WSW 03:26:14 52° S 03:40:47 10° ESE visible
08 Dec - 05:21:11 10° W 05:37:12 45° SSW 05:49:12 10° SE visible
08 Dec - 07:35:17 10° W 07:46:10 24° SW 07:54:27 10° S daylight
08 Dec - 23:11:23 10° S 23:22:37 25° SE 23:35:17 10° E visible
09 Dec - 01:17:21 10° SW 01:32:39 45° SSE 01:48:19 10° E visible
09 Dec - 03:27:09 10° WSW 03:44:02 53° S 03:58:33 10° ESE visible
09 Dec - 05:39:17 10° W 05:54:47 41° SSW 06:06:30 10° SE visible
09 Dec - 07:54:27 10° W 08:03:18 18° SW 08:10:25 10° S daylight
09 Dec - 23:27:40 10° SSW 23:39:55 31° SE 23:54:01 10° E visible
10 Dec - 01:34:44 10° SW 01:50:22 49° SSE 02:06:19 10° E visible
10 Dec - 03:45:01 10° WSW 04:01:50 52° S 04:16:13 10° ESE visible
10 Dec - 05:57:30 10° W 06:12:15 36° SSW 06:23:35 10° SSE visible
10 Dec - 08:14:45 10° WSW 08:20:20 13° SW 08:25:12 10° SSW daylight
10 Dec - 21:42:26 10° SSE 21:48:39 14° SE 21:55:35 10° ESE night (unlit)
10 Dec - 23:44:23 10° SSW 23:57:19 36° SSE 00:12:26 10° E visible
11 Dec - 01:52:16 10° WSW 02:08:07 52° S 02:24:14 10° ESE visible
11 Dec - 04:02:56 10° W 04:19:35 49° SSW 04:33:47 10° SE visible
11 Dec - 06:15:54 10° W 06:29:36 30° SW 06:40:24 10° SSE visible
11 Dec - 21:57:10 10° S 22:05:43 19° SE 22:15:52 10° E night (unlit)
12 Dec - 00:01:23 10° SW 00:14:48 41° SSE 00:30:39 10° E visible
12 Dec - 02:09:56 10° WSW 02:25:55 53° S 02:42:04 10° ESE visible
12 Dec - 04:20:56 10° W 04:37:16 46° SSW 04:51:12 10° SE visible
12 Dec - 06:34:36 10° W 06:46:51 25° SW 06:56:50 10° S daylight
12 Dec - 22:13:01 10° S 22:22:51 25° SE 22:35:03 10° E visible
13 Dec - 00:18:38 10° SW 00:32:24 46° SSE 00:48:45 10° E visible
13 Dec - 02:27:41 10° WSW 02:43:44 53° S 02:59:50 10° ESE visible
13 Dec - 04:39:02 10° W 04:54:52 41° SSW 05:08:26 10° SE visible
13 Dec - 06:53:47 10° W 07:04:00 19° SW 07:12:40 10° S daylight
13 Dec - 22:29:28 10° SSW 22:40:06 30° SE 22:53:44 10° E visible
14 Dec - 00:36:03 10° SW 00:50:05 49° SSE 01:06:45 10° E visible
14 Dec - 02:45:32 10° WSW 03:01:32 52° S 03:17:29 10° ESE visible
14 Dec - 04:57:15 10° W 05:12:21 36° SSW 05:25:27 10° SSE visible
14 Dec - 07:14:05 10° WSW 07:21:04 14° SW 07:27:21 10° SSW daylight
14 Dec - 20:44:42 10° SSE 20:49:27 13° SE 20:54:52 10° ESE night (unlit)
14 Dec - 22:46:18 10° SSW 22:57:28 36° SSE 23:12:08 10° E visible
15 Dec - 00:53:37 10° WSW 01:07:49 52° S 01:24:41 10° ESE visible
15 Dec - 03:03:27 10° W 03:19:17 49° SSW 03:35:01 10° SE visible
15 Dec - 05:15:40 10° W 05:29:45 31° SW 05:42:07 10° SSE visible
15 Dec - 20:59:29 10° S 21:06:28 18° SE 21:15:10 10° E night (unlit)
15 Dec - 23:03:24 10° SW 23:14:56 41° SSE 23:30:21 10° E visible
